Location: Cardiff
(53.7833°N, 113.6000°W)
Time: 07:17:49
(UTC+00:00)

RS-15 - Pass Details

Date: 06 December 2023
Orbit: 1893 x 2151 km, 64.8° (Epoch: 21 February)

Event Time Altitude Azimuth Distance (km) Brightness Sun altitude
Exits shadow 12:43:13 29° 306° (NW) 3,159 8.6 -24.1°
Maximum altitude 12:49:37 60° 240° (WSW) 2,183 8.0 -23.2°
Drops below altitude 10° 13:00:14 10° 165° (SSE) 4,289 10.1 -21.6°
Sets 13:03:29 0° 161° (SSE) 5,271 10.7 -21.1°
